Tracking 19717 objects as of 24-Jun-2019
HD Live streaming from Space Station
objects crossing your sky now

SL-6 DEB

Track SL-6 DEB now!
10-day predictions


NORAD ID: 18598
Int'l Code: 1981-088N
Perigee: 352.6 km
Apogee: 13,247.6 km
Inclination: 62.9 °
Period: 250.7 minutes
Semi major axis: 13171 km
RCS: 0.1262 m2 (medium)
Launch date: September 11, 1981
Source: Commonwealth of Independent States (former USSR) (CIS)
Launch site: PLESETSK MISSILE AND SPACE COMPLEX (PKMTR)

Note: This is SATELLITE DEBRIS
aabbcc
Your satellite tracking list
Your tracking list is empty




NASA's NSSDC Master Catalog

Two Line Element Set (TLE):
1 18598U 81088N   19172.51470930 +.00000593 +00000-0 +16854-3 0  9999
2 18598 062.9307 276.8614 4895162 235.4212 068.4461 05.74340022769556
Source of the keplerian elements: AFSPC